User: anonymous   Login
Location: Avenches
(46.8809°N, 7.0410°E)
Time: 02:45:09
(UTC+00:00)
Language:

SL-16 R/B - Orbit

View from above orbital plane
View from above orbital plane
View from above satellite
View from above satellite

Ground track
Ground track

The orbit data is extracted from the following two-line orbital elements,

1 28353U 04021B   20192.54822261 +.00000191 +00000-0 +12479-3 0  9999
2 28353 071.0008 250.8888 0007070 291.8044 068.2326 14.14235964830401
Epoch (UTC): 10 July 2020 13:09:26
Eccentricity: 0.0007070
inclination: 71.0008°
perigee height: 840 km
apogee height: 850 km
right ascension of ascending node: 250.8888°
argument of perigee: 291.8044°
revolutions per day: 14.14235964
mean anomaly at epoch: 68.2326°
orbit number at epoch: 83040

The dashed part of the orbit path shows where the satellite is in the earth's shadow,  

DLR